[[{"header":{"parameterUnit":"m.s-1","parameterCategory":1,"la1":30.2991,"la2":30.254,"lo1":-89.0895,"lo2":-89.0444,"dy":0.0017,"dx":0.0017,"nx":28,"ny":28,"refTime":"2025-01-17T03:00:00:Z","depth":0,"parameterNumber":2,"parameterNumberName":"U-component_of_WINDS"},"data":[0,0,0,0,0,0,0,0,0,0,0,0,0,0,0,0,0,0,0,0,0,0,0,0,0,0,0,0,0,0,0,0,0,0,0,0,0,0,0,0,0,0,0,0,0,0,0,0,0,0,0,0,0,0,0,0,0,0,0.0268,0.0268,0,0.0284,0.0284,0.0285,0.0293,0.0293,0.0293,0.0293,0.0312,0.0312,0.0313,0,0,0,0,0,0,0,0,0,0,0,0,0,0.0245,0.0245,0.0268,0.0268,0.0268,0.0284,0.0284,0.0285,0.0293,0.0293,0.0293,0.0293,0.0312,0.0312,0.0313,0,0,0,0,0,0,0,0,0,0,0,0,0,0.0258,0.0246,0.0268,0.0274,0.0275,0.0284,0.0284,0.0285,0.0293,0.0293,0.0293,0.0293,0.0311,0.0312,0.0313,0.0317,0,0,0.0315,0.0315,0,0,0,0,0,0,0,0,0.0257,0.0258,0.0273,0.0274,0.0275,0.0287,0.0283,0.0296,0.0293,0.0286,0.0293,0.0293,0.0303,0.0305,0.0308,0.0318,0.0319,0.0315,0.0315,0.0316,0.0316,0,0,0,0,0,0,0,0.0256,0.0258,0.0274,0.0273,0.0274,0.0277,0.0279,0.0286,0.0295,0.0287,0.0288,0.0289,0.0304,0.0307,0.0308,0.0319,0.0315,0.0316,0.0316,0.0316,0.0334,0.0334,0,0,0,0,0,0,0.0254,0.0257,0.0274,0.0275,0.0266,0.0277,0.0279,0.0283,0.0295,0.0296,0.0289,0.029,0.0306,0.0308,0.0309,0.0315,0.0316,0.0316,0.0317,0.0334,0.0334,0.0334,0,0,0,0,0,0,0.0253,0.0255,0.0273,0.0266,0.0268,0.0278,0.0281,0.0283,0.0286,0.0296,0.0298,0.0291,0.0306,0.0308,0.0315,0.0316,0.0317,0.0317,0.0334,0.0334,0.0334,0.0327,0,0,0,0,0,0,0.0253,0.0255,0.0256,0.0266,0.0269,0.0278,0.0282,0.0283,0.0287,0.0288,0.0298,0.03,0.0306,0.0314,0.0316,0.0317,0.0318,0.0334,0.0334,0.0334,0.0327,0.0327,0.0326,0,0,0,0,0,0.0252,0.0254,0.0256,0.0258,0.0271,0.0278,0.028,0.0286,0.0287,0.0289,0.0296,0.03,0.0315,0.0314,0.0317,0.0318,0.0334,0.0334,0.0334,0.0327,0.0327,0.0326,0,0,0,0,0,0,0.0245,0.0255,0.0258,0.0263,0.027,0.0279,0.0282,0.0285,0.0292,0.0292,0.0301,0.0303,0.0309,0.0314,0.0313,0.0323,0.0325,0.0326,0.0319,0.0319,0.0319,0.0317,0.0319,0,0,0,0,0,0.0244,0.0248,0.0258,0.0261,0.0264,0.0272,0.0276,0.028,0.0288,0.029,0.0297,0.0305,0.0311,0.0315,0.0322,0.0328,0.0331,0.033,0.033,0.0329,0.033,0.0334,0.0334,0.0334,0.0334,0.0334,0,0,0.0242,0.0248,0.0251,0.026,0.0266,0.0271,0.0275,0.028,0.0284,0.0291,0.0298,0.0304,0.0312,0.0319,0.0322,0.0323,0.033,0.033,0.0329,0.033,0.0334,0.0334,0.0334,0.0334,0.0334,0.0334,0,0,0.0241,0.0246,0.025,0.0255,0.0263,0.0268,0.0269,0.0279,0.0282,0.0289,0.0295,0.03,0.0311,0.0317,0.0322,0.0324,0.0328,0.0326,0.0324,0.0328,0.0328,0.0328,0.0328,0.0329,0.0326,0.0326,0.0326,0,0.0237,0.0245,0.0251,0.0256,0.0261,0.0267,0.0271,0.0276,0.0286,0.0289,0.029,0.0305,0.0311,0.0319,0.0319,0.0323,0.0325,0.0324,0.0327,0.0327,0.0327,0.0328,0.0328,0.0326,0.0326,0.0326,0.0326,0,0.0241,0.0246,0.0248,0.0257,0.0262,0.0266,0.0274,0.0278,0.0282,0.0287,0.0295,0.0302,0.0311,0.0313,0.0317,0.0322,0.0323,0.0325,0.0327,0.0327,0.0328,0.0328,0.0325,0.0325,0.0325,0.0325,0,0,0.0236,0.0248,0.0249,0.0253,0.0263,0.0267,0.0272,0.028,0.0283,0.029,0.0295,0.0304,0.0307,0.0312,0.0317,0.032,0.0322,0.0323,0.0323,0.0322,0.0328,0.0326,0.0326,0.0324,0.0324,0.0325,0.0327,0,0.0236,0.0245,0.0251,0.0258,0.0263,0.0269,0.0274,0.0281,0.0286,0.0292,0.0298,0.0304,0.0307,0.031,0.0314,0.0321,0.0323,0.032,0.033,0.033,0.0327,0.0327,0.0324,0.0326,0.0327,0.0328,0.0328,0,0.0238,0.0244,0.0251,0.026,0.0263,0.0267,0.0274,0.028,0.0288,0.0291,0.0297,0.0302,0.0309,0.031,0.0319,0.0318,0.0322,0.0326,0.0326,0.0327,0.0329,0.0328,0.0327,0.0327,0.0328,0.0328,0.0328,0,0.0234,0.0244,0.025,0.0253,0.0264,0.0267,0.0271,0.0279,0.0283,0.029,0.0293,0.0301,0.0306,0.0312,0.0319,0.032,0.0328,0.033,0.0332,0.0332,0.0333,0.0333,0.0333,0.0336,0.0336,0.0336,0.0336,0,0.0234,0.0238,0.0248,0.0252,0.0257,0.0264,0.0269,0.0274,0.0281,0.0286,0.0292,0.0297,0.0307,0.0313,0.0319,0.0326,0.0328,0.0331,0.0333,0.0331,0.033,0.0334,0.0334,0.0336,0.0336,0.0336,0.0336,0,0.0231,0.0237,0.0244,0.0253,0.0256,0.0259,0.0267,0.0271,0.0277,0.0284,0.0285,0.0295,0.0302,0.031,0.0321,0.0325,0.0331,0.0334,0.0329,0.033,0.0331,0.0331,0.0333,0.0334,0.0336,0.0336,0.0336,0,0.023,0.0234,0.0243,0.0247,0.0251,0.0257,0.0261,0.0269,0.0273,0.0282,0.0285,0.0293,0.03,0.0312,0.032,0.0328,0.0331,0.0331,0.0332,0.033,0.0331,0.0331,0.0331,0.0331,0.0331,0.0331,0.0331,0,0.0229,0.0232,0.0238,0.0245,0.025,0.0256,0.0262,0.0265,0.0274,0.0279,0.0286,0.0291,0.0302,0.031,0.0319,0.0325,0.0329,0.033,0.0331,0.0329,0.0326,0.0328,0.0328,0.033,0.033,0.033,0.033,0.033,0.0227,0.0231,0.0238,0.0244,0.025,0.0256,0.026,0.0266,0.0272,0.0281,0.0285,0.0293,0.0301,0.0314,0.0319,0.0326,0.0327,0.0328,0.0329,0.0329,0.0328,0.0325,0.0327,0.0327,0.0327,0.0327,0.0327,0,0.0227,0.0232,0.0237,0.0246,0.0251,0.0254,0.0262,0.0266,0.0272,0.0279,0.0286,0.0295,0.0303,0.0311,0.032,0.0323,0.0326,0.0325,0.0325,0.0327,0.0327,0.0325,0.0323,0.0323,0.0323,0.0323,0.0323,0.0323,0.0227,0.0233,0.0237,0.0246,0.0251,0.0258,0.0262,0.0267,0.0273,0.0283,0.0289,0.0294,0.0302,0.0311,0.0319,0.0321,0.0324,0.0323,0.0327,0.0326,0.0327,0.0327,0.0326,0.0324,0.0324,0.0326,0.0326,0.0326]},{"header":{"parameterUnit":"m.s-1","parameterCategory":1,"la1":30.2991,"la2":30.254,"lo1":-89.0895,"lo2":-89.0444,"dy":0.0017,"dx":0.0017,"nx":28,"ny":28,"refTime":"2025-01-17T03:00:00:Z","depth":0,"parameterNumber":3,"parameterNumberName":"V-component_of_WINDS"},"data":[0,0,0,0,0,0,0,0,0,0,0,0,0,0,0,0,0,0,0,0,0,0,0,0,0,0,0,0,0,0,0,0,0,0,0,0,0,0,0,0,0,0,0,0,0,0,0,0,0,0,0,0,0,0,0,0,0,0,-1.4007,-1.4007,0,-1.3979,-1.3979,-1.3978,-1.3959,-1.3959,-1.3959,-1.3959,-1.393,-1.3929,-1.3928,0,0,0,0,0,0,0,0,0,0,0,0,0,-1.4043,-1.4043,-1.4007,-1.4007,-1.4006,-1.3979,-1.3979,-1.3978,-1.3959,-1.3959,-1.3959,-1.3958,-1.393,-1.3929,-1.3928,0,0,0,0,0,0,0,0,0,0,0,0,0,-1.4023,-1.4043,-1.4007,-1.3993,-1.3992,-1.3979,-1.3979,-1.3978,-1.3959,-1.3959,-1.3959,-1.3958,-1.393,-1.3929,-1.3928,-1.3926,0,0,-1.3925,-1.3925,0,0,0,0,0,0,0,0,-1.4024,-1.4021,-1.3996,-1.3994,-1.3993,-1.3972,-1.3981,-1.3961,-1.3959,-1.3972,-1.3959,-1.3958,-1.3944,-1.3942,-1.3937,-1.3925,-1.3924,-1.3925,-1.3924,-1.3924,-1.3924,0,0,0,0,0,0,0,-1.4025,-1.4022,-1.3996,-1.3995,-1.3994,-1.3988,-1.3985,-1.3977,-1.3959,-1.397,-1.3969,-1.3966,-1.3943,-1.3938,-1.3936,-1.3923,-1.3925,-1.3924,-1.3924,-1.3923,-1.3908,-1.3908,0,0,0,0,0,0,-1.4029,-1.4024,-1.3997,-1.3995,-1.4008,-1.3988,-1.3984,-1.3979,-1.3959,-1.3956,-1.3966,-1.3965,-1.394,-1.3937,-1.3935,-1.3932,-1.3924,-1.3923,-1.3923,-1.3908,-1.3908,-1.3908,0,0,0,0,0,0,-1.403,-1.4027,-1.3998,-1.4009,-1.4005,-1.3988,-1.3982,-1.3979,-1.3974,-1.3956,-1.3953,-1.3964,-1.3939,-1.3936,-1.3929,-1.393,-1.3923,-1.3922,-1.3908,-1.3908,-1.3908,-1.3925,0,0,0,0,0,0,-1.4031,-1.4027,-1.4027,-1.4009,-1.4004,-1.3992,-1.3982,-1.3978,-1.3972,-1.397,-1.3953,-1.395,-1.3939,-1.393,-1.3928,-1.3929,-1.3921,-1.3908,-1.3908,-1.3908,-1.3924,-1.3926,-1.3927,0,0,0,0,0,-1.4032,-1.4032,-1.4027,-1.4024,-1.4003,-1.3992,-1.399,-1.3977,-1.3972,-1.3971,-1.396,-1.3951,-1.393,-1.393,-1.3927,-1.3927,-1.3907,-1.3908,-1.3908,-1.3923,-1.3925,-1.3927,0,0,0,0,0,0,-1.4051,-1.403,-1.4023,-1.4018,-1.4007,-1.3989,-1.3988,-1.3979,-1.3969,-1.3968,-1.3952,-1.3949,-1.3943,-1.3934,-1.3934,-1.3924,-1.3918,-1.3918,-1.393,-1.3932,-1.3933,-1.3936,-1.392,0,0,0,0,0,-1.4054,-1.4047,-1.4029,-1.4026,-1.4021,-1.4005,-1.4,-1.3991,-1.3979,-1.3974,-1.3962,-1.3951,-1.3942,-1.3937,-1.3927,-1.3923,-1.3918,-1.3922,-1.3923,-1.3924,-1.3925,-1.3921,-1.3922,-1.391,-1.391,-1.391,0,0,-1.4061,-1.4049,-1.4046,-1.403,-1.402,-1.4013,-1.4002,-1.3995,-1.3989,-1.3973,-1.3965,-1.3956,-1.3942,-1.3936,-1.3933,-1.3929,-1.3927,-1.3925,-1.3926,-1.3925,-1.3922,-1.3923,-1.3924,-1.391,-1.391,-1.391,0,0,-1.407,-1.406,-1.4057,-1.4047,-1.4033,-1.4022,-1.4022,-1.4005,-1.3998,-1.399,-1.3977,-1.397,-1.3955,-1.3946,-1.3939,-1.3944,-1.3935,-1.3941,-1.3949,-1.3946,-1.3947,-1.3948,-1.3949,-1.395,-1.3941,-1.3941,-1.3941,0,-1.4081,-1.407,-1.4056,-1.4049,-1.4043,-1.4028,-1.4023,-1.4015,-1.3998,-1.3994,-1.399,-1.397,-1.396,-1.3951,-1.3952,-1.3947,-1.3945,-1.3943,-1.3948,-1.3949,-1.3949,-1.395,-1.3951,-1.3942,-1.3942,-1.3942,-1.3942,0,-1.4083,-1.4076,-1.4075,-1.4059,-1.4052,-1.4047,-1.4031,-1.4026,-1.4017,-1.4007,-1.3998,-1.3985,-1.3973,-1.397,-1.3961,-1.396,-1.3958,-1.3951,-1.3944,-1.3951,-1.3952,-1.3953,-1.3944,-1.3943,-1.3943,-1.3943,0,0,-1.4104,-1.408,-1.408,-1.4073,-1.4055,-1.4049,-1.4043,-1.4031,-1.4026,-1.4015,-1.4009,-1.3997,-1.399,-1.3982,-1.3972,-1.397,-1.3974,-1.3963,-1.3962,-1.3966,-1.3971,-1.3977,-1.3978,-1.3968,-1.3968,-1.3968,-1.3972,0,-1.4111,-1.41,-1.4086,-1.4079,-1.4072,-1.4057,-1.4051,-1.404,-1.403,-1.4022,-1.4011,-1.4002,-1.3994,-1.399,-1.3986,-1.3974,-1.3975,-1.3974,-1.3962,-1.3962,-1.3967,-1.3978,-1.3984,-1.3989,-1.3973,-1.3973,-1.3973,0,-1.4118,-1.4107,-1.4099,-1.4082,-1.4079,-1.4074,-1.4062,-1.4054,-1.4041,-1.4034,-1.4025,-1.4014,-1.4006,-1.4,-1.3989,-1.3989,-1.3983,-1.3976,-1.3976,-1.3975,-1.3968,-1.3977,-1.399,-1.3991,-1.3973,-1.3973,-1.3973,0,-1.4134,-1.4118,-1.4111,-1.4105,-1.4085,-1.4082,-1.4073,-1.4059,-1.4053,-1.4042,-1.4037,-1.4025,-1.4019,-1.401,-1.3996,-1.3993,-1.3987,-1.3979,-1.3981,-1.3981,-1.398,-1.3981,-1.3993,-1.3976,-1.3976,-1.3976,-1.3976,0,-1.4143,-1.4139,-1.4118,-1.4114,-1.4108,-1.4092,-1.4088,-1.4078,-1.4065,-1.4059,-1.4045,-1.4039,-1.4021,-1.4013,-1.4002,-1.3995,-1.3992,-1.3986,-1.3983,-1.3987,-1.3988,-1.3984,-1.3983,-1.3977,-1.3976,-1.3976,-1.3976,0,-1.4161,-1.4146,-1.4138,-1.4119,-1.4114,-1.4111,-1.4095,-1.409,-1.4079,-1.4071,-1.4068,-1.4051,-1.404,-1.4025,-1.401,-1.4003,-1.3997,-1.3993,-1.4002,-1.4,-1.4003,-1.4003,-1.4013,-1.4013,-1.3996,-1.3997,-1.3997,0,-1.4168,-1.4164,-1.4145,-1.414,-1.4131,-1.4123,-1.4116,-1.41,-1.4093,-1.4077,-1.4074,-1.4063,-1.4053,-1.4037,-1.4023,-1.4011,-1.4006,-1.401,-1.4004,-1.4009,-1.4006,-1.4007,-1.4006,-1.4012,-1.4012,-1.4012,-1.4013,0,-1.4182,-1.4175,-1.4165,-1.4153,-1.4145,-1.4135,-1.4124,-1.412,-1.4102,-1.4095,-1.4084,-1.4076,-1.4061,-1.4049,-1.4036,-1.4026,-1.4017,-1.4014,-1.4014,-1.4019,-1.4024,-1.4021,-1.4006,-1.4014,-1.4014,-1.4014,-1.4014,-1.4014,-1.4195,-1.4191,-1.4176,-1.4166,-1.4156,-1.4146,-1.414,-1.4128,-1.4119,-1.4105,-1.4096,-1.4086,-1.4071,-1.4052,-1.4043,-1.4035,-1.4031,-1.403,-1.403,-1.4031,-1.4032,-1.4025,-1.4032,-1.4032,-1.4032,-1.4032,-1.4032,0,-1.4208,-1.4198,-1.4189,-1.4174,-1.4166,-1.4156,-1.4144,-1.4137,-1.4128,-1.4116,-1.4106,-1.4093,-1.4082,-1.4067,-1.4054,-1.405,-1.4045,-1.4048,-1.4048,-1.4046,-1.4036,-1.4038,-1.4052,-1.4052,-1.4052,-1.4052,-1.4052,-1.4052,-1.4215,-1.4207,-1.4198,-1.4185,-1.4175,-1.4165,-1.4158,-1.4149,-1.4139,-1.4125,-1.4115,-1.4105,-1.4092,-1.4078,-1.4067,-1.4063,-1.4059,-1.4063,-1.4057,-1.4049,-1.4047,-1.4045,-1.4047,-1.4062,-1.4062,-1.4068,-1.4068,-1.4068]}]]